Regional Weather Roundup
Issued by NWS

Home | Current Version | Previous Version | Graphics & Text | Print | Product List | Glossary On
Versions: 1 2 3 4 5 6 7 8 9 10 11 12 13 14 15 16 17 18 19 20 21 22 23 24 25 26 27 28
000
ASUS45 KSLC 190210
RWRUT

UTAH REGIONAL WEATHER ROUNDUP
NATIONAL WEATHER SERVICE SALT LAKE CITY UT
700 PM MST WED JAN 18 2017

UTZ001>011-023>025-190300-

NORTHERN UTAH

CITY           SKY/WX    TMP DP  RH WIND       PRES   REMARKS
BRIGHAM CITY     N/A     23  17  77 CALM      29.97R
HILL AFB       CLOUDY    20  16  84 SW5       29.93F WCI  13
LOGAN          CLOUDY    15   9  76 CALM      29.95F HAZE
OGDEN          CLOUDY    21  18  88 W3        29.94F FOG
SALT LAKE CITY MOCLDY    24  21  88 N5        29.96F FOG     WCI  18
TOOELE VALLEY  CLOUDY    27  23  86 CALM      29.97F FOG
WENDOVER       CLOUDY    25  18  74 SE5       29.94F WCI  19
HEBER CITY     PTCLDY     9   5  85 CALM      29.92R
WEST JORDAN    PTCLDY    24  24 100 CALM      29.96F

$$

UTZ011>015-024>027-190300-

CENTRAL/NORTHEAST UTAH

CITY           SKY/WX    TMP DP  RH WIND       PRES   REMARKS
PROVO AIRPORT  PTCLDY    25  21  85 CALM      29.95F
MOAB/CANYONLAN CLEAR     32  28  85 CALM      30.00R
DELTA          MOCLDY    32  27  80 NE6       29.91F WCI  26
PRICE          PTCLDY    18  12  77 N7        29.99S WCI   9
RICHFIELD      CLEAR     32  27  80 N2        29.95R
ROOSEVELT      CLOUDY    10   5  79 CALM      30.09S
VERNAL         CLOUDY    10   6  84 CALM      30.07R

$$

UTZ013>016-019>022-027-190300-

SOUTHERN UTAH

CITY           SKY/WX    TMP DP  RH WIND       PRES   REMARKS
BRYCE CANYON   PTCLDY    11   7  84 S5        29.99F WCI   3
CEDAR CITY     PTCLDY    37  19  48 SW3       29.95R
MILFORD        PTCLDY    38  24  57 S21       29.92R WCI  28
ST GEORGE      PTCLDY    43  30  61 CALM      30.02S
HANKSVILLE     PTCLDY    32  27  80 MISG      30.01F
KANAB          CLEAR     37  28  70 CALM      30.05R
BLANDING       CLEAR     35  26  67 SW5       30.07S WCI  31

$$

REGIONAL REPORTS     COLORADO/ARIZONA

CITY           SKY/WX    TMP DP  RH WIND       PRES   REMARKS
CRAIG, CO      CLOUDY     9   4  80 CALM      29.95F
GRAND JUNCTION CLEAR     32  29  88 CALM      29.99R
RIFLE, CO      CLOUDY    30  24  78 SE5       29.97S WCI  25
MONTROSE, CO   CLOUDY    34  29  82 S3        30.00R
CORTEZ, CO     CLOUDY    32  27  81 E3        30.02R
COLORADO CITY    N/A     36  27  69 MISG      30.05R
PAGE, AZ       CLEAR     42  27  55 SE3       29.98S
GRAND CANYON   CLEAR     27  23  85 CALM      30.05S
KINGMAN, AZ    PTCLDY    45  26  47 S10       30.04R
FLAGSTAFF, AZ  CLEAR     32  25  75 SW3       30.06F

$$

REGIONAL REPORTS    NEVADA/IDAHO/WYOMING

CITY           SKY/WX    TMP DP  RH WIND       PRES   REMARKS
LAS VEGAS, NV  CLOUDY    53  25  33 CALM      29.95S
ELY, NY        CLOUDY    35  20  54 S18G29    29.89S WCI  24
ELKO, NV       CLOUDY    27  17  66 E5        29.81F WCI  22
POCATELLO, ID  CLOUDY    21  15  78 NE6       29.88F WCI  13
BURLEY, ID     CLOUDY    29  20  69 NE13      29.79F WCI  19
FORT BRIDGER,    N/A     15   9  76 SW3       29.92S
EVANSTON, WY   CLOUDY    21   9  59 E8        29.89S WCI  11
ROCK SPRINGS,  CLOUDY     8   3  80 CALM      29.90R

$$




USA.gov is the U.S. government's official web portal to all federal, state and local government web resources and services.